Hourly Weather Barnasie

Today, 6 May, Thursday

Time Temperature Precipitation Wind Pressure Humidity
00:00 +2°C° 0 mm 3 mps 700 mmHg 89%
01:00 +1°C° 0 mm 3 mps 700 mmHg 89%
02:00 +1°C° 0 mm 3 mps 700 mmHg 90%
03:00 +1°C° 0 mm 2 mps 701 mmHg 92%
04:00 -1°C° 0 mm 2 mps 701 mmHg 93%
05:00 +2°C° 0 mm 2 mps 702 mmHg 86%
06:00 +3°C° 0 mm 2 mps 702 mmHg 80%
07:00 +5°C° 0 mm 2 mps 703 mmHg 72%
08:00 +5°C° 0 mm 3 mps 703 mmHg 64%
09:00 +8°C° 0 mm 3 mps 703 mmHg 55%
10:00 +8°C° 0 mm 4 mps 703 mmHg 47%
11:00 +8°C° 0 mm 4 mps 702 mmHg 46%
12:00 +10°C° 0 mm 4 mps 702 mmHg 45%
13:00 +10°C° 0 mm 4 mps 702 mmHg 45%
14:00 +10°C° 0 mm 4 mps 702 mmHg 49%
15:00 +10°C° 0 mm 4 mps 702 mmHg 53%
16:00 +8°C° 0 mm 4 mps 702 mmHg 57%
17:00 +8°C° 0 mm 3 mps 701 mmHg 65%
18:00 +7°C° 0 mm 3 mps 701 mmHg 73%
19:00 +5°C° 0 mm 2 mps 701 mmHg 81%
20:00 +5°C° 0 mm 2 mps 701 mmHg 83%
21:00 +4°C° 0 mm 2 mps 701 mmHg 85%
22:00 +4°C° 0 mm 2 mps 700 mmHg 87%
23:00 +4°C° 0 mm 2 mps 700 mmHg 85%

Tomorrow, 7 May, Friday

Time Temperature Precipitation Wind Pressure Humidity
00:00 +4°C° 0 mm 2 mps 699 mmHg 84%
01:00 +4°C° 0 mm 2 mps 699 mmHg 82%
02:00 +5°C° 0 mm 2 mps 699 mmHg 84%
03:00 +5°C° 0 mm 2 mps 698 mmHg 85%
04:00 +5°C° 0 mm 2 mps 698 mmHg 86%
05:00 +6°C° 0 mm 2 mps 698 mmHg 84%
06:00 +7°C° 0 mm 2 mps 698 mmHg 81%
07:00 +8°C° 0 mm 3 mps 698 mmHg 79%
08:00 +9°C° 0 mm 3 mps 698 mmHg 73%
09:00 +10°C° 0 mm 4 mps 698 mmHg 68%
10:00 +10°C° 0 mm 5 mps 698 mmHg 62%
11:00 +10°C° 0.1 mm 5 mps 698 mmHg 64%
12:00 +10°C° 0.1 mm 5 mps 698 mmHg 66%
13:00 +9°C° 0.1 mm 5 mps 699 mmHg 67%
14:00 +9°C° 0.3 mm 5 mps 699 mmHg 70%
15:00 +8°C° 0.3 mm 5 mps 699 mmHg 72%
16:00 +7°C° 0.3 mm 5 mps 700 mmHg 75%
17:00 +6°C° 0.1 mm 5 mps 701 mmHg 77%
18:00 +4°C° 0.1 mm 4 mps 701 mmHg 80%
19:00 +3°C° 0.1 mm 4 mps 702 mmHg 83%
20:00 +1°C° 0 mm 4 mps 703 mmHg 82%
21:00 +1°C° 0 mm 4 mps 703 mmHg 82%
22:00 0°C° 0 mm 4 mps 704 mmHg 81%
23:00 +1°C° 0 mm 3 mps 704 mmHg 82%

Day after tomorrow, 8 May, Saturday

Time Temperature Precipitation Wind Pressure Humidity
00:00 0°C° 0 mm 3 mps 705 mmHg 84%
01:00 -1°C° 0 mm 3 mps 705 mmHg 85%
02:00 -1°C° 0 mm 3 mps 706 mmHg 85%
03:00 0°C° 0 mm 3 mps 706 mmHg 85%
04:00 0°C° 0 mm 3 mps 706 mmHg 85%
05:00 +1°C° 0 mm 3 mps 707 mmHg 78%
06:00 +2°C° 0 mm 3 mps 707 mmHg 71%
07:00 +3°C° 0 mm 4 mps 708 mmHg 65%
08:00 +4°C° 0 mm 4 mps 708 mmHg 60%
09:00 +5°C° 0 mm 4 mps 708 mmHg 56%
10:00 +6°C° 0 mm 4 mps 708 mmHg 51%
11:00 +7°C° 0 mm 4 mps 708 mmHg 48%
12:00 +8°C° 0 mm 4 mps 708 mmHg 46%
13:00 +8°C° 0 mm 4 mps 708 mmHg 43%
14:00 +8°C° 0 mm 4 mps 708 mmHg 43%
15:00 +10°C° 0 mm 3 mps 708 mmHg 44%
16:00 +10°C° 0 mm 3 mps 709 mmHg 44%
17:00 +8°C° 0 mm 2 mps 708 mmHg 53%
18:00 +7°C° 0 mm 1 mps 708 mmHg 62%
19:00 +5°C° 0 mm 1 mps 708 mmHg 71%
20:00 +4°C° 0 mm 1 mps 709 mmHg 73%
21:00 +4°C° 0 mm 1 mps 709 mmHg 74%
22:00 +3°C° 0 mm 1 mps 709 mmHg 76%
23:00 +3°C° 0 mm 1 mps 709 mmHg 75%

9 May, Sunday

Time Temperature Precipitation Wind Pressure Humidity
00:00 +2°C° 0 mm 2 mps 710 mmHg 74%
01:00 +2°C° 0 mm 2 mps 710 mmHg 73%
02:00 +1°C° 0 mm 2 mps 709 mmHg 73%
03:00 +1°C° 0 mm 2 mps 709 mmHg 73%
04:00 +1°C° 0 mm 2 mps 709 mmHg 73%
05:00 +3°C° 0 mm 2 mps 709 mmHg 66%
06:00 +6°C° 0 mm 2 mps 709 mmHg 60%
07:00 +8°C° 0 mm 2 mps 710 mmHg 54%
08:00 +10°C° 0 mm 2 mps 709 mmHg 49%
09:00 +13°C° 0 mm 2 mps 709 mmHg 45%
10:00 +14°C° 0 mm 3 mps 709 mmHg 40%
11:00 +16°C° 0 mm 3 mps 709 mmHg 39%
12:00 +17°C° 0 mm 3 mps 709 mmHg 38%
13:00 +19°C° 0 mm 3 mps 709 mmHg 37%
14:00 +18°C° 0 mm 3 mps 709 mmHg 39%
15:00 +18°C° 0 mm 3 mps 708 mmHg 41%
16:00 +18°C° 0 mm 3 mps 708 mmHg 44%
17:00 +14°C° 0 mm 3 mps 708 mmHg 53%
18:00 +12°C° 0 mm 3 mps 708 mmHg 63%
19:00 +10°C° 0 mm 3 mps 708 mmHg 73%
20:00 +8°C° 0 mm 3 mps 708 mmHg 77%
21:00 +7°C° 0 mm 3 mps 708 mmHg 81%
22:00 +6°C° 0 mm 2 mps 707 mmHg 85%
23:00 +6°C° 0 mm 2 mps 707 mmHg 84%

10 May, Monday

Time Temperature Precipitation Wind Pressure Humidity
00:00 +5°C° 0 mm 2 mps 707 mmHg 84%
01:00 +5°C° 0 mm 2 mps 707 mmHg 83%
02:00 +5°C° 0 mm 2 mps 707 mmHg 82%
03:00 +5°C° 0 mm 2 mps 707 mmHg 81%
04:00 +4°C° 0 mm 3 mps 707 mmHg 79%
05:00 +7°C° 0 mm 3 mps 707 mmHg 73%
06:00 +10°C° 0 mm 3 mps 707 mmHg 66%
07:00 +12°C° 0 mm 3 mps 707 mmHg 59%
08:00 +14°C° 0 mm 3 mps 707 mmHg 54%
09:00 +17°C° 0 mm 3 mps 707 mmHg 48%
10:00 +20°C° 0 mm 4 mps 707 mmHg 43%
11:00 +21°C° 0 mm 4 mps 707 mmHg 42%
12:00 +21°C° 0 mm 4 mps 707 mmHg 41%
13:00 +22°C° 0 mm 4 mps 707 mmHg 40%
14:00 +22°C° 0 mm 4 mps 707 mmHg 43%
15:00 +21°C° 0 mm 4 mps 707 mmHg 47%
16:00 +21°C° 0 mm 4 mps 707 mmHg 50%
17:00 +19°C° 0 mm 3 mps 706 mmHg 59%
18:00 +16°C° 0 mm 3 mps 706 mmHg 69%
19:00 +13°C° 0 mm 3 mps 706 mmHg 78%
20:00 +13°C° 0 mm 2 mps 706 mmHg 82%
21:00 +12°C° 0 mm 2 mps 706 mmHg 87%
22:00 +10°C° 0 mm 2 mps 706 mmHg 91%
23:00 +10°C° 0 mm 2 mps 706 mmHg 91%

11 May, Tuesday

Time Temperature Precipitation Wind Pressure Humidity
00:00 +9°C° 0 mm 2 mps 706 mmHg 91%
01:00 +9°C° 0 mm 2 mps 705 mmHg 91%
02:00 +9°C° 0 mm 2 mps 705 mmHg 90%
03:00 +9°C° 0 mm 3 mps 705 mmHg 88%
04:00 +9°C° 0 mm 3 mps 705 mmHg 87%
05:00 +11°C° 0 mm 3 mps 705 mmHg 78%
06:00 +13°C° 0 mm 3 mps 705 mmHg 70%
07:00 +16°C° 0 mm 3 mps 705 mmHg 61%
08:00 +18°C° 0 mm 3 mps 705 mmHg 55%
09:00 +20°C° 0 mm 3 mps 705 mmHg 48%
10:00 +24°C° 0 mm 3 mps 706 mmHg 42%
11:00 +24°C° 0 mm 3 mps 706 mmHg 40%
12:00 +25°C° 0 mm 3 mps 706 mmHg 39%
13:00 +26°C° 0 mm 3 mps 706 mmHg 37%
14:00 +25°C° 0 mm 3 mps 705 mmHg 41%
15:00 +25°C° 0 mm 3 mps 705 mmHg 46%
16:00 +24°C° 0 mm 3 mps 705 mmHg 50%
17:00 +21°C° 0 mm 3 mps 705 mmHg 59%
18:00 +18°C° 0 mm 2 mps 704 mmHg 68%
19:00 +16°C° 0 mm 2 mps 704 mmHg 78%
20:00 +15°C° 0 mm 2 mps 704 mmHg 82%
21:00 +14°C° 0 mm 2 mps 704 mmHg 86%
22:00 +12°C° 0 mm 2 mps 704 mmHg 90%
23:00 +12°C° 0 mm 2 mps 704 mmHg 90%
Show more